Location: ?????
(54.9266°N, 38.5527°E)
Time: 15:46:29
(UTC+00:00)

ALOS - Visible Passes

Search period start: 16 July 2024 00:00
Search period end: 26 July 2024 00:00
Orbit: 672 x 675 km, 98.0° (Epoch: 16 July)

Date Brightness Start Highest point End Pass type
(mag) Time Alt. Az. Time Alt. Az. Time Alt. Az.
17 Jul 2.7 00:09:05 10° NNE 00:13:40 60° ESE 00:18:14 10° S visible
17 Jul 4.5 23:06:36 10° NE 23:09:53 19° E 23:13:10 10° SE visible
18 Jul 3.6 23:39:53 10° NNE 23:44:07 34° E 23:48:20 10° SSE visible
19 Jul 4.9 22:38:50 10° ENE 22:40:04 11° E 22:41:16 10° E visible
20 Jul 2.6 00:13:34 10° NNE 00:18:11 65° ESE 00:22:46 10° S visible
20 Jul 4.4 23:10:58 10° NE 23:14:26 21° E 23:17:53 10° SE visible
21 Jul 3.5 23:44:19 10° NNE 23:48:38 37° E 23:52:55 10° SSE visible
22 Jul 4.8 22:42:49 10° ENE 22:44:36 12° E 22:46:21 10° ESE visible
23 Jul 2.5 00:18:01 10° NNE 00:22:39 71° ESE 00:27:16 10° S visible
23 Jul 4.3 23:15:18 10° NE 23:18:55 22° E 23:22:32 10° SE visible
24 Jul 3.3 23:48:42 10° NNE 23:53:04 40° E 23:57:26 10° SSE visible
25 Jul 4.8 22:46:54 10° NE 22:49:04 13° E 22:51:14 10° ESE visible
